WMT211 LRIA-LIPE

Flight info

Callsign WMT211
Flight time 1h 55m
Altitude 35000
Route ARPIG P133 TOMUC DCT HUMOR DCT IZDUW DCT KOPRY DCT ZARVE DCT BARPI DCT UMBEK DCT MONFA DCT ROSKA DCT TULIK P125 BAMEK
Aircraft A320/M-SDE3FGHIRWY/LB1

Departure

Time 2026-04-27 11:45
Airport Iaşi International Airport (LRIA)

Arrival

Time 2026-04-27 13:40
Airport Bologna Guglielmo Marconi Airport (LIPE)
Time Latitude Longitude Altitude Speed Heading
2026-04-27 11:20 47.17683 27.61869 372 ft 0 kts 274°
2026-04-27 11:38 47.17683 27.61870 374 ft 2 kts 274°
2026-04-27 11:38 47.17683 27.61894 373 ft 2 kts 265°
2026-04-27 11:38 47.17686 27.61918 374 ft 2 kts 245°
2026-04-27 11:38 47.17695 27.61938 373 ft 2 kts 199°
2026-04-27 11:39 47.17711 27.61941 373 ft 2 kts 162°
2026-04-27 11:39 47.17717 27.61939 373 ft 0 kts 155°
2026-04-27 11:41 47.17712 27.61942 373 ft 4 kts 155°
2026-04-27 11:42 47.17636 27.61996 373 ft 17 kts 153°
2026-04-27 11:42 47.17521 27.62078 373 ft 19 kts 153°
2026-04-27 11:42 47.17400 27.62186 373 ft 21 kts 149°
2026-04-27 11:42 47.17277 27.62305 367 ft 21 kts 130°
2026-04-27 11:43 47.17285 27.62430 362 ft 10 kts 60°
2026-04-27 11:43 47.17327 27.62533 361 ft 15 kts 58°
2026-04-27 11:43 47.17344 27.62691 357 ft 14 kts 140°
2026-04-27 11:43 47.17261 27.62774 340 ft 14 kts 148°
2026-04-27 11:44 47.17184 27.62884 338 ft 16 kts 125°
2026-04-27 11:44 47.17126 27.62931 336 ft 9 kts 219°
2026-04-27 11:44 47.17137 27.62883 333 ft 1 kts 331°
2026-04-27 11:44 47.17217 27.62813 338 ft 46 kts 329°
2026-04-27 11:45 47.17734 27.62353 364 ft 123 kts 328°
2026-04-27 11:45 47.18281 27.61859 517 ft 150 kts 328°
2026-04-27 11:45 47.19572 27.60690 1345 ft 180 kts 327°
2026-04-27 11:45 47.20662 27.59690 2126 ft 186 kts 326°
2026-04-27 11:46 47.21787 27.58692 2743 ft 191 kts 328°
2026-04-27 11:46 47.22972 27.57754 3376 ft 201 kts 332°
2026-04-27 11:46 47.24174 27.56547 3721 ft 221 kts 309°
2026-04-27 11:46 47.25034 27.54614 4492 ft 229 kts 298°
2026-04-27 11:47 47.25753 27.52509 5441 ft 231 kts 296°
2026-04-27 11:47 47.26440 27.50384 6474 ft 229 kts 296°
2026-04-27 11:47 47.27119 27.48318 7409 ft 227 kts 296°
2026-04-27 11:47 47.27823 27.46241 8289 ft 227 kts 297°
2026-04-27 11:48 47.28547 27.44161 9149 ft 229 kts 298°
2026-04-27 11:48 47.29286 27.42074 9997 ft 230 kts 298°
2026-04-27 11:48 47.30036 27.39982 10779 ft 232 kts 299°
2026-04-27 11:48 47.30794 27.37884 11559 ft 232 kts 299°
2026-04-27 11:49 47.31558 27.35780 12337 ft 233 kts 299°
2026-04-27 11:49 47.32316 27.33693 13081 ft 235 kts 298°
2026-04-27 11:49 47.32890 27.31338 13385 ft 258 kts 284°
2026-04-27 11:49 47.33267 27.28632 13535 ft 281 kts 284°
2026-04-27 11:50 47.33664 27.25715 13790 ft 298 kts 284°
2026-04-27 11:50 47.34071 27.22681 14357 ft 304 kts 284°
2026-04-27 11:50 47.34481 27.19614 14964 ft 306 kts 284°
2026-04-27 11:50 47.34896 27.16521 15563 ft 309 kts 284°
2026-04-27 11:51 47.35309 27.13440 16168 ft 311 kts 283°
2026-04-27 11:51 47.35729 27.10299 16776 ft 314 kts 283°
2026-04-27 11:51 47.36572 27.03992 17662 ft 302 kts 283°
2026-04-27 11:52 47.36962 27.01043 17783 ft 286 kts 283°
2026-04-27 11:52 47.37353 26.98110 17936 ft 299 kts 283°
2026-04-27 11:52 47.37768 26.95010 18111 ft 315 kts 283°
2026-04-27 11:52 47.38194 26.91812 18566 ft 321 kts 283°
2026-04-27 11:53 47.38617 26.88606 19052 ft 324 kts 283°
2026-04-27 11:53 47.39049 26.85321 19555 ft 328 kts 283°
2026-04-27 11:53 47.39483 26.82005 20068 ft 331 kts 283°
2026-04-27 11:53 47.39921 26.78661 20577 ft 334 kts 283°
2026-04-27 11:54 47.40366 26.75280 21074 ft 337 kts 283°
2026-04-27 11:54 47.40814 26.71871 21554 ft 340 kts 283°
2026-04-27 11:54 47.41151 26.69299 21894 ft 342 kts 283°
2026-04-27 11:54 47.41604 26.65847 22355 ft 346 kts 283°
2026-04-27 11:55 47.42059 26.62348 22834 ft 348 kts 283°
2026-04-27 11:55 47.42508 26.58873 23303 ft 352 kts 283°
2026-04-27 11:55 47.42965 26.55307 23756 ft 355 kts 283°
2026-04-27 11:55 47.43426 26.51712 24146 ft 357 kts 283°
2026-04-27 11:56 47.43890 26.48099 24539 ft 360 kts 283°
2026-04-27 11:56 47.44357 26.44452 24949 ft 362 kts 283°
2026-04-27 11:56 47.44823 26.40793 25355 ft 364 kts 283°
2026-04-27 11:56 47.45293 26.37109 25758 ft 366 kts 283°
2026-04-27 11:57 47.45764 26.33409 26153 ft 368 kts 283°
2026-04-27 11:57 47.46238 26.29682 26538 ft 370 kts 282°
2026-04-27 11:57 47.46706 26.25990 26917 ft 372 kts 282°
2026-04-27 11:57 47.47183 26.22223 27292 ft 374 kts 282°
2026-04-27 11:58 47.47661 26.18428 27666 ft 376 kts 282°
2026-04-27 11:58 47.48138 26.14620 28033 ft 378 kts 282°
2026-04-27 11:58 47.48616 26.10782 28411 ft 380 kts 282°
2026-04-27 11:58 47.49093 26.06928 28776 ft 382 kts 282°
2026-04-27 11:59 47.49573 26.03054 29132 ft 384 kts 282°
2026-04-27 11:59 47.50055 25.99154 29501 ft 387 kts 282°
2026-04-27 11:59 47.50539 25.95227 29877 ft 389 kts 282°
2026-04-27 11:59 47.51025 25.91284 30226 ft 391 kts 282°
2026-04-27 12:00 47.51396 25.87354 30522 ft 394 kts 275°
2026-04-27 12:00 47.51371 25.83279 30823 ft 398 kts 270°
2026-04-27 12:00 47.51258 25.79191 31252 ft 397 kts 270°
2026-04-27 12:00 47.51145 25.75121 31682 ft 396 kts 270°
2026-04-27 12:01 47.51032 25.71052 32089 ft 396 kts 270°
2026-04-27 12:01 47.50918 25.66988 32489 ft 395 kts 270°
2026-04-27 12:01 47.50805 25.62927 32908 ft 395 kts 270°
2026-04-27 12:01 47.50693 25.58922 33310 ft 395 kts 270°
2026-04-27 12:02 47.50578 25.54866 33720 ft 394 kts 270°
2026-04-27 12:02 47.50462 25.50815 34121 ft 394 kts 270°
2026-04-27 12:02 47.50344 25.46766 34458 ft 394 kts 270°
2026-04-27 12:02 47.50226 25.42725 34774 ft 394 kts 270°
2026-04-27 12:03 47.50106 25.38674 35076 ft 394 kts 270°
2026-04-27 12:03 47.49857 25.30488 35191 ft 405 kts 270°
2026-04-27 12:04 47.49593 25.22067 35188 ft 417 kts 270°
2026-04-27 12:04 47.49321 25.13480 35191 ft 419 kts 270°
2026-04-27 12:05 47.49039 25.04880 35201 ft 419 kts 270°
2026-04-27 12:05 47.48749 24.96278 35206 ft 419 kts 270°
2026-04-27 12:06 47.48461 24.87907 35211 ft 420 kts 270°
2026-04-27 12:06 47.48166 24.79292 35217 ft 420 kts 270°
2026-04-27 12:07 47.47858 24.70659 35214 ft 420 kts 270°
2026-04-27 12:07 47.47543 24.62098 35215 ft 420 kts 269°
2026-04-27 12:08 47.47221 24.53470 35214 ft 420 kts 269°
2026-04-27 12:08 47.46897 24.44846 35213 ft 421 kts 269°
2026-04-27 12:09 47.46566 24.36207 35210 ft 421 kts 269°
2026-04-27 12:09 47.46231 24.27731 35226 ft 412 kts 269°
2026-04-27 12:10 47.45889 24.19289 35229 ft 411 kts 269°
2026-04-27 12:10 47.45544 24.10857 35227 ft 411 kts 269°
2026-04-27 12:11 47.45194 24.02421 35233 ft 411 kts 269°
2026-04-27 12:11 47.44837 23.94039 35233 ft 412 kts 269°
2026-04-27 12:12 47.44469 23.85595 35236 ft 412 kts 269°
2026-04-27 12:12 47.44101 23.77145 35236 ft 412 kts 269°
2026-04-27 12:13 47.43724 23.68697 35234 ft 413 kts 269°
2026-04-27 12:13 47.43337 23.60297 35232 ft 413 kts 269°
2026-04-27 12:14 47.42950 23.51840 35235 ft 413 kts 269°
2026-04-27 12:14 47.42556 23.43365 35238 ft 413 kts 269°
2026-04-27 12:15 47.42153 23.34898 35235 ft 414 kts 268°
2026-04-27 12:15 47.41740 23.26484 35234 ft 414 kts 268°
2026-04-27 12:16 47.41328 23.18005 35242 ft 414 kts 268°
2026-04-27 12:16 47.40913 23.09512 35236 ft 415 kts 268°
2026-04-27 12:17 47.40486 23.01083 35237 ft 415 kts 268°
2026-04-27 12:17 47.40045 22.92590 35242 ft 415 kts 268°
2026-04-27 12:18 47.39604 22.84096 35236 ft 415 kts 268°
2026-04-27 12:18 47.39156 22.75589 35239 ft 416 kts 268°
2026-04-27 12:19 47.38694 22.67084 35238 ft 416 kts 268°
2026-04-27 12:19 47.38240 22.58628 35237 ft 416 kts 268°
2026-04-27 12:20 47.37776 22.50110 35241 ft 417 kts 268°
2026-04-27 12:20 47.37298 22.41597 35240 ft 417 kts 268°
2026-04-27 12:21 47.36810 22.33128 35242 ft 417 kts 268°
2026-04-27 12:21 47.36321 22.24606 35240 ft 417 kts 268°
2026-04-27 12:22 47.35834 22.16073 35242 ft 418 kts 268°
2026-04-27 12:22 47.35334 22.07535 35247 ft 418 kts 267°
2026-04-27 12:23 47.34826 21.99052 35250 ft 418 kts 267°
2026-04-27 12:23 47.34069 21.90555 35247 ft 421 kts 257°
2026-04-27 12:24 47.32420 21.82241 35248 ft 422 kts 257°
2026-04-27 12:24 47.30776 21.73936 35246 ft 423 kts 257°
2026-04-27 12:25 47.29136 21.65670 35246 ft 423 kts 257°
2026-04-27 12:25 47.27475 21.57356 35248 ft 423 kts 257°
2026-04-27 12:26 47.25808 21.49039 35248 ft 424 kts 256°
2026-04-27 12:26 47.24133 21.40717 35251 ft 424 kts 256°
2026-04-27 12:27 47.22448 21.32392 35252 ft 425 kts 256°
2026-04-27 12:27 47.20768 21.24123 35256 ft 425 kts 256°
2026-04-27 12:28 47.19067 21.15803 35252 ft 425 kts 256°
2026-04-27 12:28 47.17360 21.07480 35252 ft 425 kts 256°
2026-04-27 12:29 47.15646 20.99160 35254 ft 425 kts 256°
2026-04-27 12:29 47.13925 20.90841 35253 ft 426 kts 256°
2026-04-27 12:30 47.12212 20.82582 35245 ft 426 kts 256°
2026-04-27 12:30 47.10482 20.74268 35246 ft 426 kts 256°
2026-04-27 12:31 47.08740 20.65955 35245 ft 426 kts 256°
2026-04-27 12:31 47.06997 20.57642 35243 ft 426 kts 256°
2026-04-27 12:32 47.05254 20.49387 35243 ft 427 kts 256°
2026-04-27 12:32 47.03492 20.41078 35244 ft 427 kts 256°
2026-04-27 12:33 47.01723 20.32765 35241 ft 427 kts 256°
2026-04-27 12:33 46.99950 20.24458 35241 ft 428 kts 256°
2026-04-27 12:34 46.98170 20.16142 35242 ft 428 kts 256°
2026-04-27 12:34 46.96392 20.07879 35242 ft 428 kts 256°
2026-04-27 12:35 46.94591 19.99561 35245 ft 429 kts 256°
2026-04-27 12:35 46.92785 19.91238 35250 ft 429 kts 256°
2026-04-27 12:36 46.90980 19.82918 35252 ft 429 kts 256°
2026-04-27 12:36 46.89162 19.74603 35250 ft 429 kts 256°
2026-04-27 12:37 46.87345 19.66347 35245 ft 430 kts 256°
2026-04-27 12:37 46.85509 19.58036 35244 ft 430 kts 256°
2026-04-27 12:38 46.83677 19.49727 35241 ft 430 kts 256°
2026-04-27 12:38 46.81833 19.41411 35239 ft 430 kts 255°
2026-04-27 12:39 46.79989 19.33155 35237 ft 431 kts 255°
2026-04-27 12:39 46.78125 19.24851 35231 ft 431 kts 255°
2026-04-27 12:40 46.76255 19.16540 35229 ft 431 kts 255°
2026-04-27 12:40 46.74382 19.08234 35230 ft 432 kts 255°
2026-04-27 12:41 46.72491 18.99916 35231 ft 432 kts 255°
2026-04-27 12:41 46.70597 18.91607 35232 ft 433 kts 255°
2026-04-27 12:42 46.68708 18.83329 35233 ft 433 kts 255°
2026-04-27 12:42 46.66803 18.75027 35232 ft 434 kts 255°
2026-04-27 12:43 46.64921 18.66831 35234 ft 434 kts 255°
2026-04-27 12:43 46.63322 18.59901 35239 ft 435 kts 255°
2026-04-27 12:44 46.61389 18.51562 35238 ft 436 kts 255°
2026-04-27 12:44 46.59130 18.41865 35238 ft 436 kts 255°
2026-04-27 12:45 46.57180 18.33508 35240 ft 436 kts 255°
2026-04-27 12:45 46.55549 18.26570 35242 ft 437 kts 255°
2026-04-27 12:46 46.53581 18.18214 35238 ft 437 kts 255°
2026-04-27 12:46 46.51612 18.09875 35234 ft 437 kts 255°
2026-04-27 12:47 46.49634 18.01527 35227 ft 437 kts 255°
2026-04-27 12:47 46.47653 17.93191 35224 ft 437 kts 255°
2026-04-27 12:48 46.45675 17.84905 35221 ft 438 kts 255°
2026-04-27 12:48 46.43715 17.76742 35220 ft 438 kts 255°
2026-04-27 12:49 46.41706 17.68403 35216 ft 439 kts 255°
2026-04-27 12:49 46.39681 17.60058 35216 ft 439 kts 255°
2026-04-27 12:50 46.37660 17.51713 35216 ft 439 kts 255°
2026-04-27 12:50 46.35646 17.43411 35211 ft 440 kts 255°
2026-04-27 12:51 46.33607 17.35068 35209 ft 440 kts 255°
2026-04-27 12:51 46.31559 17.26721 35213 ft 440 kts 255°
2026-04-27 12:52 46.29506 17.18381 35203 ft 440 kts 255°
2026-04-27 12:52 46.27442 17.10039 35205 ft 441 kts 255°
2026-04-27 12:53 46.24353 16.97619 35206 ft 441 kts 255°
2026-04-27 12:53 46.22847 16.89065 35206 ft 437 kts 261°
2026-04-27 12:54 46.21460 16.80517 35201 ft 438 kts 261°
2026-04-27 12:54 46.20051 16.71956 35204 ft 438 kts 261°
2026-04-27 12:55 46.18633 16.63404 35206 ft 438 kts 261°
2026-04-27 12:55 46.17216 16.54911 35211 ft 438 kts 261°
2026-04-27 12:56 46.15802 16.46462 35213 ft 427 kts 261°
2026-04-27 12:56 46.14410 16.38158 35209 ft 425 kts 261°
2026-04-27 12:57 46.13019 16.29875 35209 ft 425 kts 261°
2026-04-27 12:57 46.11629 16.21652 35207 ft 425 kts 260°
2026-04-27 12:58 46.10223 16.13371 35200 ft 425 kts 260°
2026-04-27 12:58 46.08803 16.05101 35204 ft 426 kts 260°
2026-04-27 12:59 46.07375 15.96826 35203 ft 426 kts 260°
2026-04-27 12:59 46.05963 15.88611 35204 ft 426 kts 260°
2026-04-27 13:00 46.04532 15.80334 35203 ft 426 kts 260°
2026-04-27 13:00 46.03105 15.72144 35202 ft 426 kts 260°
2026-04-27 13:01 46.01687 15.64030 35200 ft 426 kts 259°
2026-04-27 13:01 46.00232 15.55782 35209 ft 426 kts 259°
2026-04-27 13:02 45.98782 15.47586 35202 ft 426 kts 259°
2026-04-27 13:02 45.97328 15.39417 35196 ft 425 kts 259°
2026-04-27 13:03 45.95859 15.31188 35196 ft 425 kts 259°
2026-04-27 13:03 45.94388 15.22951 35197 ft 425 kts 259°
2026-04-27 13:04 45.92913 15.14738 35192 ft 425 kts 259°
2026-04-27 13:04 45.91441 15.06575 35183 ft 425 kts 259°
2026-04-27 13:05 45.89950 14.98374 35181 ft 425 kts 259°
2026-04-27 13:05 45.88402 14.90191 35180 ft 425 kts 257°
2026-04-27 13:06 45.86690 14.82071 35178 ft 426 kts 256°
2026-04-27 13:06 45.84933 14.73961 35174 ft 425 kts 256°
2026-04-27 13:07 45.83206 14.65856 35168 ft 425 kts 256°
2026-04-27 13:07 45.81512 14.57797 35161 ft 424 kts 256°
2026-04-27 13:08 45.79804 14.49707 35163 ft 424 kts 256°
2026-04-27 13:08 45.78080 14.41614 35158 ft 424 kts 256°
2026-04-27 13:09 45.76352 14.33528 35160 ft 425 kts 256°
2026-04-27 13:09 45.74608 14.25442 35153 ft 425 kts 256°
2026-04-27 13:10 45.72864 14.17365 35153 ft 425 kts 256°
2026-04-27 13:10 45.71130 14.09348 35145 ft 424 kts 256°
2026-04-27 13:11 45.69378 14.01296 35150 ft 425 kts 256°
2026-04-27 13:11 45.67616 13.93223 35136 ft 424 kts 256°
2026-04-27 13:12 45.65854 13.85171 35127 ft 425 kts 255°
2026-04-27 13:12 45.64098 13.77169 35126 ft 425 kts 255°
2026-04-27 13:13 45.62318 13.69107 35128 ft 425 kts 255°
2026-04-27 13:13 45.60538 13.61068 35125 ft 425 kts 255°
2026-04-27 13:14 45.58696 13.53034 35124 ft 426 kts 250°
2026-04-27 13:14 45.55905 13.45603 34770 ft 421 kts 243°
2026-04-27 13:15 45.54471 13.42047 34393 ft 417 kts 243°
2026-04-27 13:15 45.53029 13.38479 33973 ft 414 kts 243°
2026-04-27 13:15 45.51593 13.34945 33497 ft 411 kts 243°
2026-04-27 13:15 45.50163 13.31441 33020 ft 408 kts 243°
2026-04-27 13:16 45.48738 13.27955 32568 ft 405 kts 243°
2026-04-27 13:16 45.47322 13.24502 32124 ft 402 kts 243°
2026-04-27 13:16 45.45909 13.21082 31674 ft 400 kts 243°
2026-04-27 13:16 45.44503 13.17683 31254 ft 397 kts 243°
2026-04-27 13:17 45.43102 13.14303 30830 ft 395 kts 243°
2026-04-27 13:17 45.41730 13.10991 30422 ft 392 kts 243°
2026-04-27 13:17 45.40344 13.07651 29995 ft 390 kts 243°
2026-04-27 13:17 45.38971 13.04340 29537 ft 388 kts 243°
2026-04-27 13:18 45.37604 13.01049 29113 ft 385 kts 243°
2026-04-27 13:18 45.36244 12.97777 28676 ft 383 kts 243°
2026-04-27 13:18 45.34895 12.94531 28262 ft 380 kts 243°
2026-04-27 13:18 45.33552 12.91310 27854 ft 378 kts 242°
2026-04-27 13:19 45.32236 12.88150 27446 ft 375 kts 242°
2026-04-27 13:19 45.30911 12.84970 27035 ft 373 kts 242°
2026-04-27 13:19 45.29590 12.81808 26632 ft 371 kts 242°
2026-04-27 13:19 45.28429 12.78679 26238 ft 366 kts 250°
2026-04-27 13:20 45.27611 12.75281 25843 ft 362 kts 255°
2026-04-27 13:20 45.26829 12.71894 25431 ft 360 kts 253°
2026-04-27 13:20 45.26004 12.68548 25029 ft 359 kts 253°
2026-04-27 13:20 45.25162 12.65220 24621 ft 357 kts 252°
2026-04-27 13:21 45.24324 12.61920 24241 ft 355 kts 252°
2026-04-27 13:21 45.23504 12.58679 23857 ft 353 kts 252°
2026-04-27 13:21 45.22682 12.55409 23430 ft 351 kts 252°
2026-04-27 13:21 45.21869 12.52153 22992 ft 349 kts 253°
2026-04-27 13:22 45.21068 12.48919 22569 ft 347 kts 253°
2026-04-27 13:22 45.20272 12.45704 22152 ft 344 kts 253°
2026-04-27 13:22 45.19481 12.42510 21732 ft 342 kts 252°
2026-04-27 13:22 45.18692 12.39337 21333 ft 340 kts 252°
2026-04-27 13:23 45.17907 12.36182 20924 ft 338 kts 252°
2026-04-27 13:23 45.17127 12.33053 20538 ft 336 kts 252°
2026-04-27 13:23 45.16360 12.29976 20159 ft 335 kts 252°
2026-04-27 13:23 45.15585 12.26874 19783 ft 333 kts 252°
2026-04-27 13:24 45.14811 12.23786 19407 ft 332 kts 252°
2026-04-27 13:24 45.14041 12.20721 19049 ft 330 kts 252°
2026-04-27 13:24 45.13272 12.17666 18695 ft 328 kts 252°
2026-04-27 13:24 45.12370 12.14702 18336 ft 329 kts 239°
2026-04-27 13:25 45.10867 12.12269 17958 ft 330 kts 224°
2026-04-27 13:25 45.09163 12.10103 17557 ft 329 kts 224°
2026-04-27 13:25 45.07487 12.07978 17200 ft 327 kts 224°
2026-04-27 13:25 45.05798 12.05839 16835 ft 325 kts 224°
2026-04-27 13:26 45.04119 12.03714 16489 ft 323 kts 224°
2026-04-27 13:26 45.02452 12.01608 16138 ft 321 kts 224°
2026-04-27 13:26 45.00793 11.99510 15803 ft 319 kts 224°
2026-04-27 13:26 44.99146 11.97423 15471 ft 317 kts 224°
2026-04-27 13:27 44.97505 11.95343 15147 ft 315 kts 223°
2026-04-27 13:27 44.95880 11.93287 14823 ft 314 kts 223°
2026-04-27 13:27 44.94259 11.91237 14494 ft 310 kts 223°
2026-04-27 13:27 44.92679 11.89245 13940 ft 307 kts 223°
2026-04-27 13:28 44.91093 11.87248 13325 ft 304 kts 223°
2026-04-27 13:28 44.89529 11.85276 12740 ft 300 kts 223°
2026-04-27 13:28 44.87981 11.83328 12175 ft 296 kts 223°
2026-04-27 13:28 44.86450 11.81403 11609 ft 293 kts 223°
2026-04-27 13:29 44.84935 11.79500 11062 ft 290 kts 223°
2026-04-27 13:29 44.83436 11.77621 10526 ft 287 kts 223°
2026-04-27 13:29 44.81952 11.75755 9996 ft 284 kts 223°
2026-04-27 13:29 44.80503 11.73933 9415 ft 282 kts 223°
2026-04-27 13:30 44.79049 11.72103 8837 ft 279 kts 223°
2026-04-27 13:30 44.77604 11.70288 8284 ft 277 kts 223°
2026-04-27 13:30 44.76172 11.68492 7751 ft 275 kts 223°
2026-04-27 13:30 44.74748 11.66710 7211 ft 273 kts 223°
2026-04-27 13:31 44.73334 11.64944 6660 ft 271 kts 223°
2026-04-27 13:31 44.71930 11.63196 6122 ft 269 kts 223°
2026-04-27 13:31 44.70536 11.61456 5562 ft 267 kts 223°
2026-04-27 13:31 44.69040 11.60008 5038 ft 266 kts 204°
2026-04-27 13:32 44.67238 11.59496 4519 ft 266 kts 179°
2026-04-27 13:32 44.65420 11.59954 3992 ft 266 kts 167°
2026-04-27 13:32 44.63625 11.60568 3474 ft 264 kts 166°
2026-04-27 13:32 44.61850 11.61177 3102 ft 260 kts 166°
2026-04-27 13:33 44.60078 11.61782 3037 ft 263 kts 166°
2026-04-27 13:33 44.58288 11.62392 3040 ft 264 kts 166°
2026-04-27 13:33 44.56507 11.62997 3039 ft 260 kts 166°
2026-04-27 13:33 44.54818 11.63572 3040 ft 247 kts 166°
2026-04-27 13:34 44.53158 11.64064 3036 ft 243 kts 174°
2026-04-27 13:34 44.51470 11.63970 3044 ft 243 kts 191°
2026-04-27 13:34 44.49877 11.63209 3044 ft 243 kts 207°
2026-04-27 13:34 44.48372 11.62118 3045 ft 244 kts 207°
2026-04-27 13:35 44.46861 11.60989 3045 ft 255 kts 213°
2026-04-27 13:35 44.45576 11.59293 3038 ft 251 kts 234°
2026-04-27 13:35 44.44826 11.57180 3039 ft 236 kts 254°
2026-04-27 13:35 44.44622 11.55009 3032 ft 222 kts 272°
2026-04-27 13:36 44.44885 11.52960 3035 ft 206 kts 290°
2026-04-27 13:36 44.45456 11.51227 3042 ft 188 kts 297°
2026-04-27 13:36 44.46020 11.49675 3031 ft 171 kts 297°
2026-04-27 13:36 44.46542 11.48236 3034 ft 162 kts 297°
2026-04-27 13:37 44.47050 11.46835 3014 ft 161 kts 298°
2026-04-27 13:37 44.47551 11.45455 2868 ft 161 kts 297°
2026-04-27 13:37 44.48054 11.44065 2669 ft 160 kts 298°
2026-04-27 13:37 44.48558 11.42674 2407 ft 159 kts 298°
2026-04-27 13:38 44.49059 11.41290 2174 ft 159 kts 298°
2026-04-27 13:38 44.49561 11.39903 1933 ft 160 kts 298°
2026-04-27 13:38 44.50060 11.38522 1696 ft 159 kts 298°
2026-04-27 13:38 44.50559 11.37141 1441 ft 159 kts 297°
2026-04-27 13:39 44.51048 11.35788 1191 ft 157 kts 298°
2026-04-27 13:39 44.51549 11.34400 925 ft 157 kts 298°
2026-04-27 13:39 44.52034 11.33059 703 ft 158 kts 299°
2026-04-27 13:39 44.52524 11.31689 437 ft 157 kts 298°
2026-04-27 13:40 44.53013 11.30322 222 ft 157 kts 298°
2026-04-27 13:40 44.53496 11.28988 133 ft 140 kts 297°
2026-04-27 13:40 44.53750 11.28295 127 ft 15 kts 296°
2026-04-27 13:40 44.53771 11.28154 128 ft 16 kts 266°
2026-04-27 13:41 44.53719 11.28042 127 ft 14 kts 203°
2026-04-27 13:41 44.53631 11.28082 130 ft 16 kts 128°
2026-04-27 13:41 44.53577 11.28228 126 ft 18 kts 116°
2026-04-27 13:41 44.53516 11.28400 128 ft 21 kts 116°
2026-04-27 13:42 44.53449 11.28585 128 ft 17 kts 117°
2026-04-27 13:42 44.53389 11.28748 125 ft 20 kts 117°
2026-04-27 13:42 44.53340 11.28805 130 ft 8 kts 193°
2026-04-27 13:42 44.53297 11.28773 130 ft 7 kts 207°
2026-04-27 13:43 44.53274 11.28757 125 ft 0 kts 206°
2026-04-27 13:43 44.53272 11.28756 125 ft 0 kts 206°